TimeMDT,TemperatureF,Dew PointF,Humidity,Sea Level PressureIn,VisibilityMPH,Wind Direction,Wind SpeedMPH,Gust SpeedMPH,PrecipitationIn,Events,Conditions,WindDirDegrees,DateUTC
12:53 AM,14.0,3.9,64,30.34,10.0,Calm,Calm,-,N/A,,Clear,0,2013-03-25 06:53:00
1:53 AM,12.0,3.9,70,30.33,10.0,Calm,Calm,-,N/A,,Clear,0,2013-03-25 07:53:00
2:53 AM,12.0,3.0,67,30.33,10.0,Calm,Calm,-,N/A,,Clear,0,2013-03-25 08:53:00
3:53 AM,12.0,3.9,70,30.32,10.0,Variable,4.6,-,N/A,,Clear,0,2013-03-25 09:53:00
4:53 AM,9.0,3.0,77,30.32,10.0,Calm,Calm,-,N/A,,Clear,0,2013-03-25 10:53:00
5:53 AM,8.1,1.0,73,30.32,10.0,NNW,3.5,-,N/A,,Clear,330,2013-03-25 11:53:00
6:53 AM,7.0,-0.0,73,30.32,10.0,Calm,Calm,-,N/A,,Clear,0,2013-03-25 12:53:00
7:53 AM,12.0,3.9,70,30.34,10.0,ESE,3.5,-,N/A,,Clear,120,2013-03-25 13:53:00
8:53 AM,19.9,6.1,55,30.30,10.0,Calm,Calm,-,N/A,,Clear,0,2013-03-25 14:53:00
9:53 AM,26.1,6.1,43,30.26,10.0,East,4.6,-,N/A,,Clear,100,2013-03-25 15:53:00
10:53 AM,34.0,6.1,31,30.23,10.0,Calm,Calm,-,N/A,,Clear,0,2013-03-25 16:53:00
11:53 AM,37.9,1.9,22,30.21,10.0,SW,21.9,29.9,N/A,,Clear,220,2013-03-25 17:53:00
12:53 PM,39.9,3.9,22,30.18,10.0,WSW,21.9,-,N/A,,Clear,240,2013-03-25 18:53:00
1:53 PM,43.0,3.9,20,30.15,10.0,WSW,13.8,21.9,N/A,,Clear,240,2013-03-25 19:53:00
2:53 PM,46.0,1.9,16,30.11,10.0,SW,10.4,20.7,N/A,,Clear,220,2013-03-25 20:53:00
3:53 PM,48.0,1.0,14,30.09,10.0,WSW,17.3,24.2,N/A,,Clear,240,2013-03-25 21:53:00
4:53 PM,46.9,3.0,16,30.10,10.0,WNW,11.5,-,N/A,,Clear,300,2013-03-25 22:53:00
5:53 PM,46.0,3.9,18,30.10,10.0,WNW,9.2,-,N/A,,Clear,300,2013-03-25 23:53:00
6:53 PM,42.1,3.9,21,30.10,10.0,West,8.1,-,N/A,,Clear,280,2013-03-26 00:53:00
7:53 PM,27.0,1.9,34,30.14,10.0,SW,5.8,-,N/A,,Clear,220,2013-03-26 01:53:00
8:53 PM,26.1,6.1,43,30.12,10.0,SW,6.9,-,N/A,,Clear,220,2013-03-26 02:53:00
9:53 PM,36.0,3.0,25,30.06,10.0,SW,21.9,27.6,N/A,,Clear,220,2013-03-26 03:53:00
10:53 PM,36.0,-0.9,21,30.03,10.0,SW,12.7,29.9,N/A,,Clear,230,2013-03-26 04:53:00
11:53 PM,36.0,-0.0,22,30.00,10.0,SW,17.3,27.6,N/A,,Clear,220,2013-03-26 05:53:00